This is the latest recevied weather packets stored in our database for station/object IK2ILW-6. If no packets are shown the sender has not sent any weather packets the latest 10 day(s).
| Time | Temp. | Humidity | Pressure | Rain* | Wind** | Luminosity | Snow |
|---|---|---|---|---|---|---|---|
| 1777441002 | 4.44° C | 93% | 1018.2 hPa | 1.02 mm | - | 18 W/m² | - |
| 1777440687 | 4.44° C | 93% | 1018.1 hPa | 1.02 mm | - | 19 W/m² | - |
| 1777440391 | 5° C | 93% | 1018.1 hPa | 2.03 mm | - | 18 W/m² | - |
| 1777440094 | 5° C | 93% | 1018.1 hPa | 2.03 mm | - | 12 W/m² | - |
| 1777439799 | 5° C | 92% | 1018.1 hPa | 3.05 mm | - | 7 W/m² | - |
| 1777439484 | 5° C | 92% | 1018 hPa | 3.05 mm | - | 9 W/m² | - |
| 1777439192 | 4.44° C | 93% | 1017.9 hPa | 3.05 mm | - | 9 W/m² | - |
| 1777438898 | 4.44° C | 93% | 1018 hPa | 3.05 mm | - | 7 W/m² | - |
| 1777438598 | 4.44° C | 93% | 1018.1 hPa | 3.05 mm | - | 7 W/m² | - |
| 1777438302 | 4.44° C | 93% | 1018.1 hPa | 4.06 mm | - | 0 W/m² | - |
| 1777437987 | 4.44° C | 93% | 1018 hPa | 4.06 mm | - | 0 W/m² | - |
| 1777437691 | 4.44° C | 93% | 1018 hPa | 5.08 mm | - | 0 W/m² | - |
| 1777437395 | 4.44° C | 93% | 1018 hPa | 5.08 mm | - | 0 W/m² | - |
| 1777437100 | 4.44° C | 92% | 1018 hPa | 7.11 mm | - | 0 W/m² | - |
| 1777436784 | 4.44° C | 92% | 1018 hPa | 7.11 mm | - | 0 W/m² | - |
| 1777436489 | 4.44° C | 93% | 1018 hPa | 7.87 mm | - | 0 W/m² | - |
| 1777436194 | 4.44° C | 92% | 1018 hPa | 7.87 mm | - | 0 W/m² | - |
| 1777435902 | 4.44° C | 92% | 1018 hPa | 8.89 mm | - | 0 W/m² | - |
| 1777435587 | 4.44° C | 92% | 1018 hPa | 9.91 mm | - | 0 W/m² | - |
| 1777435291 | 4.44° C | 91% | 1017.9 hPa | 10.92 mm | - | 0 W/m² | - |
| 1777434996 | 4.44° C | 91% | 1017.9 hPa | 10.92 mm | - | 0 W/m² | - |
| 1777434700 | 3.89° C | 91% | 1017.9 hPa | 11.94 mm | - | 0 W/m² | - |
| 1777434383 | 3.89° C | 92% | 1018.1 hPa | 12.95 mm | - | 0 W/m² | - |
| 1777434088 | 3.89° C | 93% | 1018.1 hPa | 11.94 mm | - | 0 W/m² | - |
| 1777433792 | 3.89° C | 94% | 1018.2 hPa | 11.94 mm | - | 0 W/m² | - |
* Rain latest hour (hover to see other rain measurements)
** Current wind speed in m/s (hover to see current wind gust speed)